Location: Ferris
(32.5340°N, 96.6656°W)
Time: 23:36:43
(UTC+00:00)

Cosmos 1354 Rocket - Pass Details

Date: 18 May 2026
Orbit: 761 x 778 km, 74.0° (Epoch: 7 June)

Event Time Altitude Azimuth Distance (km) Brightness Sun altitude
Rises 05:12:22 0° 332° (NNW) 3,229 8.2 -35.2°
Reaches altitude 10° 05:14:55 10° 323° (NW) 2,298 7.2 -35.4°
Enters shadow 05:17:25 24° 303° (WNW) 1,524 5.9 -35.6°
